Facebook Twitter

Wetterstation Glücksburg-Meierwik

Messwerte
  Temperatur Wetter Niederschlag Luftdruck Wind
Fr, 04:20 Uhr 16° - - 1005 hPa 19 km/h O
Fr, 04:00 Uhr 16° - - 1006 hPa 18 km/h O
Fr, 03:20 Uhr 16° - - 1006 hPa 19 km/h O
Fr, 03:00 Uhr 16° - - 1006.2 hPa 18 km/h O
Fr, 02:20 Uhr 17° - - 1006 hPa 16 km/h O
Fr, 02:00 Uhr 17° - - 1006.7 hPa 18 km/h O
Fr, 01:20 Uhr 17° - - 1007 hPa 19 km/h O
Fr, 01:00 Uhr 18° - - 1007.4 hPa 18 km/h SO
Fr, 00:20 Uhr 18° - - 1007 hPa 21 km/h SO
Fr, 00:00 Uhr 18° - - 1008 hPa 22 km/h SO
Do, 23:20 Uhr 18° - - 1008 hPa 21 km/h SO
Do, 23:00 Uhr 18° - - 1008.2 hPa 18 km/h SO
Do, 22:20 Uhr 18° - - 1008 hPa 19 km/h SO
Do, 22:00 Uhr 18° - - 1008.4 hPa 18 km/h SO
Do, 21:20 Uhr 18° - - 1008 hPa 19 km/h SO
Do, 21:00 Uhr 19° - - 1008.5 hPa 18 km/h SO
Do, 20:20 Uhr 19° - - 1008 hPa 16 km/h SO
Do, 20:00 Uhr 20° - 1 mm 1008.4 hPa 18 km/h SO
Do, 19:20 Uhr 20° - - 1008 hPa 21 km/h SO
Do, 19:00 Uhr 21° - - 1008.8 hPa 22 km/h SO

Alle Zeitangaben MESZ